Location: Altoona
(40.5167°N, 78.4000°W)
Time: 18:19:54
(UTC-04:00)

Cosmos 1544 Rocket - Pass Details

Date: 21 August 2017
Orbit: 604 x 632 km, 82.5° (Epoch: 22 September)

Event Time Altitude Azimuth Distance (km) Brightness Sun altitude
Exits shadow 22:24:23 65° 44° (NE) 697 3.7 -24.3°
Drops below altitude 10° 22:28:20 10° 11° (NNE) 2,017 6.6 -24.9°
Sets 22:30:34 0° 10° (N) 2,926 7.5 -25.2°
